Regional Weather Roundup
Issued by NWS

Home | Current Version | Previous Version | Graphics & Text | Print | Product List | Glossary On
Versions: 1 2 3 4 5 6 7 8 9 10 11 12 13 14 15 16 17 18 19 20 21 22 23 24 25 26 27 28 29 30 31 32 33 34 35 36 37 38 39 40 41 42 43 44 45 46 47 48 49 50
000
ASUS43 KMKX 062200
RWRWI

WISCONSIN REGIONAL WEATHER ROUNDUP
NATIONAL WEATHER SERVICE MILWAUKEE/SULLIVAN WI
400 PM CST TUE DEC 06 2016

NOTE: "FAIR" INDICATES FEW OR NO CLOUDS BELOW 12,000 FEET WITH NO
SIGNIFICANT WEATHER AND/OR OBSTRUCTIONS TO VISIBILITY.

WIZ001-002-006>008-014>016-023>028-062300-
NORTHWEST WISCONSIN

CITY           SKY/WX    TMP DP  RH WIND       PRES   REMARKS
SUPERIOR ARPT  FLURRIES  24  16  70 SW17      29.55S WCI  10
ASHLAND        NOT AVBL
HAYWARD        NOT AVBL
SIREN          FLURRIES  23  14  70 SW16G28   29.62S WCI   9
CUMBERLAND     FLURRIES  21  14  73 SW18G26   29.63S WCI   6
RICE LAKE      FLURRIES  22  15  75 SW13G18   29.67S WCI  10
CHETEK         CLOUDY    21  15  77 SW14      29.67S WCI   8
LADYSMITH      FLURRIES  22  16  79 SW10      29.67S WCI  11
EAU CLAIRE     NOT AVBL
MENOMONIE      FLURRIES  23  17  76 SW17      29.71S WCI  10
NEW RICHMOND   CLOUDY    23  14  69 SW16G26   29.68R WCI   9
OSCEOLA        FLURRIES  24  15  70 SW16G29   29.70S WCI  10
$$

WIZ003>005-009-010-017-018-062300-
NORTH CENTRAL WISCONSIN

CITY           SKY/WX    TMP DP  RH WIND       PRES   REMARKS
MANITOWISH WTR CLOUDY    23  19  86 SW14G21   29.57R WCI  10
ARBOR VITAE    CLOUDY    25  19  80 SW14G20   29.58S WCI  13
WOODRUFF       CLOUDY    25  19  80 SW14G20   29.58S WCI  13
RHINELANDER    NOT AVBL
EAGLE RIVER    CLOUDY    27  20  75 SW12      29.57R WCI  17
LAND O LAKES   MOCLDY    28  20  71 SW10G20   29.57R WCI  19
PHILLIPS       FLURRIES  19  15  81 SW18      29.62R WCI   4
TOMAHAWK       CLOUDY    23  19  83 SW7       29.63R WCI  15
MEDFORD        FLURRIES  19  13  77 SW14G21   29.66S WCI   6
MERRILL        CLOUDY    24  18  77 W20G26    29.66R WCI   9
$$

WIZ029-030-035-036-043>047-062300-
CENTRAL WISCONSIN

CITY           SKY/WX    TMP DP  RH WIND       PRES   REMARKS
WAUSAU         NOT AVBL
MOSINEE        NOT AVBL
MARSHFIELD     NOT AVBL
STEVENS POINT  CLOUDY    25  17  71 W15G24    29.70R WCI  13
WAUPACA        PTCLDY    33  22  64 W20G25    29.71R WCI  22
WAUTOMA        NOT AVBL
WISC RAPIDS    MOCLDY    25  17  72 W14G25    29.73R WCI  13
CAMP DOUGLAS   NOT AVBL
$$

WIZ011>013-019>022-031-037>040-048>050-062300-
NORTHEAST WISCONSIN

CITY           SKY/WX    TMP DP  RH WIND       PRES   REMARKS
ANTIGO         CLOUDY    26  20  80 W15       29.62S WCI  14
SHAWANO        MOCLDY    36  27  70 SW9G17    29.66S WCI  29
OCONTO         CLOUDY    34  31  87 SW8       29.66S WCI  27
STURGEON BAY   NOT AVBL
GREEN BAY      MOCLDY    37  31  78 SW12      29.67F WCI  29
MANITOWOC      CLOUDY    36  30  80 SW9       29.70R WCI  29
APPLETON       NOT AVBL
CLINTONVILLE   CLEAR     32  21  64 W14G25    29.68R WCI  22
OSHKOSH        PTCLDY    34  21  59 W10G23    29.69S WCI  26
$$

WIZ032>034-041-042-053>061-062300-
SOUTHWEST WISCONSIN

CITY           SKY/WX    TMP DP  RH WIND       PRES   REMARKS
LA CROSSE      CLOUDY    27  17  66 SW16G22   29.81R WCI  15
SPARTA         CLOUDY    25  17  74 SW8G17    29.78S WCI  16
VIROQUA        CLOUDY    23  17  77 W18G26    29.78S WCI   8
BOSCOBEL       NOT AVBL
PRAIRIE DU CHI CLOUDY    27  16  64 W18G28    29.86R WCI  13
PLATTEVILLE    PTCLDY    27  20  74 W20       29.83R WCI  14
$$

WIZ056-057-062-063-064-067-068-062300-
SOUTH CENTRAL WISCONSIN

CITY           SKY/WX    TMP DP  RH WIND       PRES   REMARKS
REEDSBURG      PTCLDY    27  18  69 W18       29.77R WCI  14
BARABOO/DELLS  PTCLDY    29  19  66 W17       29.75R WCI  17
LONE ROCK      NOT AVBL
MINERAL POINT  MOCLDY    28  21  74 W18G25    29.80R WCI  16
MADISON        NOT AVBL
MIDDLETON      NOT AVBL
WATERTOWN      PTCLDY    34  26  74 W8G17     29.74R WCI  27
MONROE         CLEAR     30  21  69 W22G29    29.80R WCI  17
JANESVILLE     NOT AVBL
$$

WIZ051-052-058>065-066-070>072-062300-
SOUTHEAST WISCONSIN

CITY           SKY/WX    TMP DP  RH WIND       PRES   REMARKS
MILWAUKEE      PTCLDY    37  29  72 W14       29.75R WCI  28
WAUKESHA       NOT AVBL
MILWAUKEE/TIMM MOCLDY    34  28  80 W12G21    29.75R WCI  25
RACINE         NOT AVBL
BURLINGTON     CLEAR     34  28  77 W9        29.76R WCI  26
KENOSHA        MOCLDY    36  30  80 W13       29.77R WCI  27
FOND DU LAC    PTCLDY    34  23  64 SW10      29.71S WCI  26
SHEBOYGAN      CLOUDY    35  30  82 W13       29.71R WCI  26
WEST BEND      CLOUDY    34  32  93 W15       29.72R WCI  24
JUNEAU         CLEAR     32  23  69 SW18      29.74R WCI  20
$$

LSZ147-162-062300-
LAKE SUPERIOR

STATION/POSITION TIME  TEMP    WIND        PRES    WAVE
                       AIR SEA DIR/SP/G            HT/PER
                 (UTC) (F)     (DEG/KT/KT) (MB)    (FT/S)
DEVILS ISLAND    2100   27     220/ 24/ 31 1001.5S
PORT WING        2140   24     200/ 13/ 20 1001.7S
SAXON HARBOR     2104   27     230/ 12/ 26 1002.4
$$

LMZ867-665-643>646-062300-
LAKE MICHIGAN

STATION/POSITION TIME  TEMP    WIND        PRES    WAVE
                       AIR SEA DIR/SP/G            HT/PER
                 (UTC) (F)     (DEG/KT/KT) (MB)    (FT/S)
CHAMBERS ISLAND  2140   37     180/  3/ 10 1003.4F
NORTHPORT PIER   2140   38     220/  4/  9 1004.1F
SISTER BAY       2123   38     230/ 13/ 16   N/A
ALGOMA LAKESHORE 2121          280/ 11/ 14   N/A
KEWAUNEE LAKESHO 2130   36     240/  8/ 14 1004.8R
SHEBOYGAN LAKESH 2100   36     240/ 13/ 15 1006.1F
PORT WASHINGTON  2140   37     260/  7/ 13 1007.8S
MILWAUKEE LAKESH 2130   36     260/ 10/ 15   N/A
KENOSHA   LAKESH 2100   36     270/ 12/ 20 1007.8
$$

TC  - TEMPERATURE IN CELSIUS
VSB - VISIBILITY IN STATUTE MILES
WCI - WIND CHILL INDEX
HX  - HEAT INDEX





USA.gov is the U.S. government's official web portal to all federal, state and local government web resources and services.